Flag for United Kingdom Weather past 2 weeks in Caversham, England, United Kingdom

Now
52 °F

Partly sunny.


Feels Like: 45 °F
Forecast: 40 / 50 °F
Wind: 25 mph from West

Location: Benson

Current Time: Mar 31, 2015 at 2:42:27 PM

Latest Report: Mar 31, 2015 at 2:00 PM


Visibility: 22 mi

Pressure: 29.89 "Hg

Humidity: 47%

Dew point: 32 °F

Location of CavershamLocation

Historic Weather in Caversham — Graph

°F

Caversham temperature yesterday

Maximum temperature yesterday: 53 °F (at 11:00 PM)
Minimum temperature yesterday: 41 °F (at 7:00 AM)
Average temperature yesterday: 46 °F

Past Weeks' High & Low Weather Summary

 TemperatureHumidityPressure
High57 °F (Mar 28, 11:00 AM)100% (Mar 17, 12:00 AM)30.55 "Hg (Mar 17, 12:00 AM)
Low25 °F (Mar 25, 6:00 AM)40% (Mar 26, 5:00 PM)29.35 "Hg (Mar 29, 2:00 PM)
Average44 °F79%30.05 "Hg
* Reported Mar 16 12:00 Noon — Mar 31 1:00 PM, Caversham, Weather by CustomWeather, © 2015

Note: Actual official high and low records may vary slightly from our data, if they occured in-between our weather recording intervals... More about our weather records

Advertising

Caversham weather history for previous 24 hours

 ConditionsComfort  
Time TempWeatherWind HumidityBarometerVisibility
1:00 PM
Tue, Mar 31
53 °FScattered clouds.26 mph48%29.85 "Hg25 mi
12:00 PM52 °FPassing clouds.24 mph52%29.83 "Hg25 mi
11:00 AM51 °FPassing clouds.24 mph55%29.80 "Hg25 mi
10:00 AM51 °FScattered clouds.18 mph60%29.75 "Hg22 mi
9:00 AM49 °FScattered clouds.21 mph68%29.70 "Hg19 mi
8:00 AM49 °FScattered clouds.18 mph66%29.64 "Hg19 mi
7:00 AM49 °FPartly sunny.20 mph65%29.59 "Hg19 mi
6:00 AM50 °FOvercast.17 mph68%29.54 "Hg19 mi
5:00 AM50 °FSprinkles. Overcast.18 mph75%29.47 "Hg9 mi
3:00 AM53 °FCool.28 mph80%29.41 "Hg17 mi
2:00 AM53 °FOvercast.31 mph82%29.44 "Hg16 mi
1:00 AM53 °FDrizzle. Overcast.23 mph88%29.44 "Hg5 mi
12:00 AM52 °FDrizzle. Overcast.23 mph89%29.47 "Hg12 mi
11:00 PM
Mon, Mar 30
53 °FOvercast.18 mph88%29.54 "Hg19 mi
10:00 PM52 °FCool.21 mph90%29.56 "Hg19 mi
9:00 PM49 °FCool.18 mph95%29.59 "Hg4 mi
8:00 PM47 °FCool.21 mph96%29.63 "Hg4 mi
7:00 PM47 °FLight rain. Overcast.13 mph89%29.71 "Hg9 mi
6:00 PM47 °FLight rain. Overcast.15 mph81%29.75 "Hg12 mi
5:00 PM49 °FLight rain. Overcast.12 mph70%29.80 "Hg12 mi
4:00 PM49 °FOvercast.17 mph61%29.84 "Hg17 mi
3:00 PM49 °FOvercast.15 mph59%29.86 "Hg16 mi
2:00 PM49 °FOvercast.14 mph56%29.88 "Hg19 mi
Weather by CustomWeather, © 2015

See weather overviewHow to use our weather pages